Terug naar catalogus

STARLINK-35128

ActiefCommunicatieVLEO
NORAD 65628·PAYLOAD·🇺🇸 United States

Gelanceerd Sep 18, 2025 vanaf Cape Canaveral Space Force Station

Loading…

Volgende Passages (komende 24 uur)

TLE

VersSource: CelesTrak SupGP

Epoch: Sep 15, 2026, 03:01 UTC

1 65628C 25210G   26258.12618056  .00030560  00000+0  90295-3 0  2588
2 65628  53.1565 142.9183 0001295  82.0756 314.1406 15.34373615    15

Volg STARLINK-35128 in realtime met AllMySat

Download on the App Store